Skip Page Navigation
NASA JPL Caltech
NASA Logo - Jet Propulsion Laboratory + View the NASA Portal
+ Near-Earth Object (NEO) Program
Search JPL
JPL Home Earth Solar System Stars & Galaxies Technology
JPL Solar System Dynamics
BODIES ORBITS EPHEMERIDES TOOLS PHYSICAL DATA DISCOVERY FAQ SITE MAP
JPL Small-Body Database Browser
Search: [ help ]  
1776 Kuiper (2520 P-L)
Classification: Main-belt Asteroid          SPK-ID: 2001776
Ephemeris | Orbit Diagram | Orbital Elements | Physical Parameters | Discovery Circumstances | Close-Approach Data ]

[ show orbit diagram ]
Orbital Elements at Epoch 2456400.5 (2013-Apr-18.0) TDB
Reference: JPL 1 (heliocentric ecliptic J2000)
 Element Value Uncertainty (1-sigma)   Units 
e .01321928689866342 5.7586e-08  
a 3.104257500683539 2.0224e-08 AU
q 3.063221430174675 1.7545e-07 AU
i 9.490719421808841 8.0348e-06 deg
node 176.7046037238327 3.6184e-05 deg
peri 300.9755013117721 0.00029718 deg
M 113.866172793858 0.00029362 deg
tp 2455768.630695301244
(2011-Jul-26.13069530)
0.0016306 JED
period 1997.72192311554
5.47
1.9522e-05
5.345e-08
d
yr
n .1802052607194516 1.761e-09 deg/d
Q 3.145293571192402 2.0491e-08 AU
  Orbit Determination Parameters
   # obs. used (total)      1187  
   data-arc span      30367 days (83.14 yr)  
   first obs. used      1930-03-02  
   last obs. used      2013-04-22  
   planetary ephem.      DE405  
   SB-pert. ephem.      SB405-CPV-2  
   condition code      0  
   fit RMS      .56395  
   data source      ORB  
   producer      Otto Matic  
   solution date      2013-Apr-29 12:47:22  

Additional Information
 Earth MOID = 2.08409 AU 
 T_jup = 3.200 
[ show covariance matrix ]

Ephemeris | Orbit Diagram | Orbital Elements | Physical Parameters | Discovery Circumstances | Close-Approach Data ]

Physical Parameter Table
Parameter Symbol Value Units Sigma Reference Notes
absolute magnitude H 11.00 mag n/a IRAS-A-FPA-3-RDR-IMPS-V6.0 IRAS observations used: 9
diameter diameter 35.96 km 1.6 IRAS-A-FPA-3-RDR-IMPS-V6.0 IRAS observations used: 9
geometric albedo albedo 0.0544   0.005 IRAS-A-FPA-3-RDR-IMPS-V6.0 IRAS observations used: 9

1776 Kuiper (2520 P-L)          Discovered 1960-Sep-24 by PLS at Palomar (675)
These planets have all been discovered as a result of the Palomar survey of faint minor planets and subsequently identified with planets observed at other oppositions. In Sept. and Oct. 1960, T. Gehrels exposed 130 plates with the 122 cm Schmidt camera at Palomar. In the following years C. J. van Houten and I. van Houten-Groeneveld measured these plates astrometrically and photometrically at Leiden. P. Herget, Cincinnati, computed the orbits of the planets found on the NORC computer, Dahlgren, Virginia, USA.
Note: "planet" implies "minor planet"
Reference: DISCOVERY.DBLast Updated: 2003-08-29

[ show close-approach data ]
Alternate Designations
 2520 P-L = 1930 EB = 1931 KK = 1938 SU = 1952 DQ2 = 1963 FJ 
Ephemeris | Orbit Diagram | Orbital Elements | Physical Parameters | Discovery Circumstances | Close-Approach Data ]
ABOUT SSD CREDITS/AWARDS PRIVACY/COPYRIGHT GLOSSARY LINKS
FirstGov 2013-May-20 18:22 UT
(server date/time)  
NASA Home Page
Site Manager:   Donald K. Yeomans
Webmaster  Alan B. Chamberlin